STARLINK-5729 (55596 NORAD) Tracking and Keplerian Element Data

This shows tracking and keplerian element data for the satellite.

Feedback or suggestion? Click here.




ElementValue
Catalog55596
NameSTARLINK-5729
Epoch Orbit654
Epoch Day85.25001157
Epoch Year2023
RAAN109.9238
Inclination42.9983
Eccentricity0.0001319
Argument of Perigee265.3458
Mean Anonmoly129.2623
Mean Motion15.08195574
Decay Rate-0.01213736
L11 55596U 23020AD 23085.25001157 -.01213736 00000+0 -84277-1 0 9999
L22 55596 42.9983 109.9238 0001319 265.3458 129.2623 15.08195574 6541



Live tracking and technical data element details for STARLINK-5729 (NORAD 55596). STARLINK-5729 can be tracked NOW for your location showing map with azimuth and elevation plus other details from your city location.







IsCatalogInMostPopularTable: catalog: 55596, numindb: -1

Insert: records affected: 1


GetName: 55596 STARLINK-5729

Hit Count: inserted at: Tue, 28 Mar 2023 02:02:40 GMT